Location: Alpha Ridge Park
(39.3209°N, 76.9128°W)
Time: 03:06:23
(UTC-04:00)

BEESAT - Pass Details

Date: 07 July 2022
Orbit: 700 x 706 km, 98.6° (Epoch: 14 August)

Event Time Altitude Azimuth Distance (km) Brightness Sun altitude
Rises 22:15:28 0° 3° (N) 3,104 ? -15.6°
Reaches altitude 10° 22:17:53 10° 354° (N) 2,182 ? -15.9°
Maximum altitude 22:22:10 34° 291° (WNW) 1,158 ? -16.5°
Drops below altitude 10° 22:26:26 10° 227° (SW) 2,171 ? -17.0°
Sets 22:28:51 0° 218° (SW) 3,086 ? -17.3°
